GFSFLT2_2pvu_pres_000.txt.gz
Presure
241 218 214 212 200 217 221 218 212 202 207 213 212 218 231 226 246 241 231 231 221 221 244 231 247 269 403
234 218 207 204 215 215 227 218 204 209 208 214 219 237 235 229 253 237 235 236 233 232 249 242 263 293 383
223 219 217 206 224 236 213 204 225 230 231 214 219 240 221 232 244 238 239 235 225 250 247 254 267 388 333
235 218 209 225 209 225 207 213 223 218 216 214 239 238 234 248 238 239 237 233 248 229 247 263 312 339 310
221 222 231 230 216 222 181 205 223 216 217 235 232 241 228 249 244 235 239 233 251 246 259 272 350 316 355
227 224 227 224 217 215 223 218 212 213 221 206 237 241 231 243 238 240 228 248 233 245 256 373 331 305 346
220 213 212 210 212 209 210 219 221 217 221 232 234 229 241 244 232 234 237 240 243 263 294 348 324 300 336
226 212 221 215 205 216 228 223 223 224 239 242 232 229 242 240 239 225 241 227 243 268 332 330 311 374 313
204 215 225 219 212 215 223 224 213 210 238 244 228 242 240 235 241 240 230 246 254 276 338 323 308 377 310
213 239 220 220 226 223 236 226 220 246 243 230 244 242 238 241 237 233 227 244 260 348 328 320 355 340 338
230 231 222 217 215 222 233 230 239 241 234 238 244 238 233 237 247 228 245 262 289 341 337 348 358 337 363
234 214 214 227 234 226 222 229 243 231 236 247 237 236 232 243 229 241 250 283 360 331 324 363 342 313 332
230 228 229 222 237 232 242 234 236 224 249 240 235 227 238 241 233 255 255 308 332 335 345 349 375 303 403
213 223 240 232 235 222 247 227 238 226 242 245 228 229 244 239 237 247 291 341 339 352 324 336 332 346 406
231 225 238 227 241 249 227 232 238 231 250 222 226 239 243 233 247 265 355 325 347 372 302 350 347 332 323
226 228 247 248 243 227 234 237 246 255 232 231 226 238 230 253 238 308 343 353 409 363 303 332 324 322 314
262 251 238 237 226 236 239 231 249 237 232 228 239 229 249 248 272 354 334 429 380 326 326 323 328 322 312

GFSFLT2_2pvu_pres_006.txt.gz
Presure
155 189 187 202 217 203 266 258 240 228 219 231 228 226 227 224 224 206 226 211 222 216 216 245 256 254 236
121 203 201 194 226 203 260 251 244 229 219 220 226 218 224 237 233 233 230 213 221 243 226 232 251 241 241
203 176 201 197 262 232 255 232 248 230 220 234 222 221 227 218 226 213 221 240 217 227 248 247 244 242 241
198 199 201 182 218 260 254 254 246 228 221 224 218 223 228 228 228 220 232 233 224 229 246 253 237 235 262
217 224 215 201 273 259 247 248 240 231 190 224 229 220 226 228 217 230 220 220 231 233 246 248 238 258 250
208 245 199 290 274 243 247 243 235 230 233 213 217 229 229 219 219 219 217 229 229 239 252 233 238 260 246
229 242 300 282 260 256 241 244 233 227 234 232 224 224 233 221 224 218 230 237 238 248 254 238 242 261 234
295 326 300 279 226 250 243 237 224 229 216 226 231 226 214 226 218 232 226 228 238 250 249 239 266 236 256
342 325 287 267 262 245 240 236 227 218 216 221 235 226 222 226 217 226 229 236 257 243 247 267 246 256 247
331 315 270 262 262 249 239 227 224 219 223 222 225 224 230 227 215 231 238 249 249 244 267 247 254 238 262
295 291 272 256 250 228 233 229 222 223 236 236 233 230 224 220 227 238 247 249 241 263 243 250 239 256 268
296 277 263 259 241 228 242 217 237 237 227 226 227 223 226 228 239 246 257 242 265 255 249 251 254 265 283
282 265 250 255 243 230 229 234 224 225 219 228 229 217 226 241 246 250 248 270 254 248 252 258 266 272 354
269 267 257 238 237 237 234 232 227 225 231 234 233 228 234 250 245 245 259 263 249 250 262 269 280 341 314
264 258 258 239 232 227 232 228 192 235 236 231 239 248 254 242 245 259 254 250 252 254 265 287 341 331 344
270 268 253 246 241 244 246 242 238 234 241 255 252 242 239 245 255 245 249 251 250 266 275 341 344 337 315
275 264 258 262 257 250 253 252 246 254 252 236 241 241 250 257 245 248 251 256 266 277 339 339 334 334 327

GFSFLT2_2pvu_pres_009.txt.gz
Presure
185 184 175 166 186 167 191 200 196 198 235 206 207 264 251 245 236 232 229 225 227 227 231 232 229 229 218
207 210 209 205 200 205 204 213 208 190 195 217 246 263 252 242 234 232 227 225 232 224 236 226 219 228 227
202 190 172 178 201 196 216 217 187 197 204 269 264 262 251 240 232 230 229 228 218 229 229 231 221 222 234
199 170 192 215 211 218 232 213 209 210 284 266 256 253 245 240 237 231 233 235 232 231 219 226 235 229 236
219 189 212 243 241 227 227 205 211 268 281 262 251 251 249 232 238 239 233 224 229 234 236 231 226 237 218
254 254 240 197 185 192 245 214 271 255 276 258 248 238 238 238 229 237 218 218 228 233 232 228 233 219 239
249 234 329 323 337 267 215 261 268 255 263 256 241 238 238 235 234 231 225 225 230 237 229 228 221 239 247
268 333 353 339 339 334 286 271 273 252 248 242 223 243 238 231 242 224 230 232 231 233 227 229 237 239 252
357 351 336 331 322 307 291 284 262 255 247 227 245 234 234 246 242 229 231 226 231 232 230 238 234 247 257
343 340 339 318 304 332 317 287 278 261 250 234 236 237 235 242 226 234 234 237 224 230 239 233 249 246 256
339 334 317 334 310 280 303 282 277 247 243 239 239 238 237 237 232 233 236 227 235 237 235 254 261 243 253
262 321 229 310 294 297 254 263 256 242 245 239 239 238 232 229 237 236 234 236 239 238 256 243 246 254 243
315 243 300 288 285 271 262 253 250 242 238 239 236 227 236 234 244 235 233 240 248 243 242 246 256 244 262
345 304 292 284 269 260 254 256 243 249 230 240 242 240 233 238 231 243 240 253 254 250 255 273 252 259 270
310 272 288 281 261 261 259 249 248 243 235 237 236 234 240 243 239 250 247 247 256 265 261 259 256 270 275
248 300 278 261 256 248 265 245 250 249 243 241 241 240 238 249 249 239 242 257 261 259 255 263 271 278 316
294 293 282 267 257 247 249 264 255 243 239 242 244 243 244 239 235 240 260 252 262 254 265 274 282 345 293

GFSFLT2_2pvu_pres_012.txt.gz
Presure
202 191 197 183 183 177 190 187 191 193 201 215 187 204 223 227 219 241 267 239 252 258 246 248 237 230 230
173 162 170 190 193 188 186 197 200 181 172 220 177 223 236 195 248 231 224 265 251 255 244 246 238 229 232
176 172 199 195 171 184 186 185 201 188 201 170 180 229 231 261 201 204 216 254 247 260 239 244 234 236 238
240 207 163 164 166 170 268 291 165 172 211 271 255 251 267 265 262 216 247 251 246 245 235 238 239 238 227
270 278 368 308 189 260 243 181 301 228 228 197 288 222 275 252 278 227 263 246 241 241 238 238 235 235 157
349 216 214 212 211 191 358 245 199 371 253 298 215 265 271 254 245 240 253 250 240 240 239 245 237 235 230
318 213 323 298 327 365 373 343 345 347 256 306 285 281 253 247 256 241 253 249 246 227 231 234 235 235 242
380 377 376 361 375 362 363 371 359 346 345 330 293 272 251 256 239 254 240 235 235 233 233 233 246 232 238
370 371 372 362 346 360 371 362 351 340 341 320 298 280 263 249 246 251 250 254 235 236 236 245 236 240 230
382 387 386 332 303 325 356 347 333 315 309 306 287 260 254 246 256 244 247 236 219 237 237 230 241 235 246
295 374 364 376 301 353 339 327 315 303 295 281 274 265 260 258 245 253 244 237 240 241 238 241 236 242 244
307 285 367 384 264 294 272 318 264 311 313 286 274 259 256 258 253 239 238 238 238 243 237 230 238 235 246
328 340 387 355 312 300 313 254 247 276 292 287 282 274 260 255 249 241 246 249 241 233 231 243 234 245 238
289 351 340 305 315 296 285 274 284 280 244 261 259 252 249 247 236 237 237 231 234 248 243 243 246 238 246
291 344 325 300 292 284 274 274 266 260 260 250 249 245 244 239 236 237 241 247 245 234 247 240 250 237 243
358 339 310 299 285 273 268 265 258 255 252 252 245 244 250 251 252 248 246 242 245 251 262 248 261 248 241
322 313 268 290 274 270 257 259 253 248 254 253 254 247 243 241 240 248 255 266 249 250 254 256 239 259 266

GFSFLT2_2pvu_pres_015.txt.gz
Presure
159 197 157 185 209 226 179 162 254 224 213 203 181 183 187 169 178 197 211 209 178 235 236 268 244 266 256
163 194 230 167 318 316 304 284 277 175 173 267 255 201 205 206 207 203 222 253 254 247 297 261 262 267 256
216 339 262 255 320 307 309 210 235 269 302 268 267 229 246 259 244 231 239 234 250 273 249 263 273 264 265
340 344 340 328 331 321 326 317 364 325 334 325 315 264 304 292 242 214 232 245 270 279 250 266 247 270 260
343 329 327 320 321 319 366 295 348 335 297 360 336 241 362 343 319 269 235 213 279 271 246 242 270 248 253
400 341 407 357 303 342 361 340 338 341 317 343 352 198 243 206 309 300 243 265 272 248 248 275 254 240 254
415 410 341 324 318 315 314 305 312 280 330 328 340 351 290 329 308 293 286 281 257 258 268 254 247 249 249
325 322 314 309 307 308 338 387 378 375 335 328 357 352 347 333 360 305 281 285 265 262 259 238 239 251 249
315 318 323 318 322 311 311 327 366 360 360 352 349 363 344 335 299 289 290 265 260 256 256 249 255 240 227
423 455 327 409 411 400 303 308 395 361 331 340 355 346 339 317 316 297 275 255 257 252 242 245 228 244 242
352 332 422 323 307 304 290 370 372 393 311 350 341 327 324 318 299 294 265 261 259 246 247 243 245 241 234
355 358 425 442 439 351 302 279 365 264 337 325 322 309 299 288 285 278 275 260 260 255 248 243 241 242 239
336 326 451 364 325 369 338 338 326 266 273 256 299 311 288 283 283 266 255 249 249 244 242 248 250 250 254
324 427 344 313 337 326 352 306 313 306 269 292 302 297 281 271 265 260 258 243 244 240 238 250 246 231 231
304 338 305 289 316 309 311 301 301 292 284 285 280 276 276 277 262 260 258 254 258 248 247 241 242 243 243
342 308 284 310 312 290 297 288 278 274 275 263 257 261 261 255 254 245 252 246 232 235 246 247 250 249 247
318 325 319 311 287 287 287 279 273 268 264 259 259 257 249 244 249 247 248 247 250 252 250 253 254 234 230

GFSFLT2_2pvu_pres_018.txt.gz
Presure
449 444 457 414 441 373 347 331 353 354 298 285 338 329 300 225 239 257 168 253 267 254 205 224 243 190 201
427 427 417 416 422 433 367 325 353 337 363 323 322 313 216 212 302 183 277 279 269 242 241 157 253 241 177
423 416 410 335 317 315 385 281 314 348 300 300 304 308 301 321 303 302 291 270 284 238 276 269 282 280 259
408 413 410 407 409 407 400 390 342 333 331 320 315 317 307 297 300 302 300 335 322 309 275 281 256 247 246
402 405 410 406 401 405 415 400 384 326 313 304 305 302 302 307 344 296 321 312 321 305 313 276 273 282 262
338 403 301 404 405 397 406 415 406 384 334 393 309 295 295 355 356 356 350 285 242 355 210 216 270 272 263
325 304 294 386 397 328 323 319 314 392 383 330 333 315 314 307 315 330 307 281 321 320 297 272 261 264 275
368 380 379 381 381 391 343 315 315 308 309 313 344 365 338 294 292 297 304 340 339 267 290 276 278 255 253
361 370 378 368 373 376 429 479 377 312 306 314 298 300 364 357 359 355 348 349 330 297 287 272 279 256 246
366 370 371 369 377 392 435 450 345 399 398 385 367 365 366 356 346 355 356 352 308 299 288 293 273 257 261
359 360 358 366 377 395 446 450 359 313 348 301 382 371 351 342 339 335 348 338 314 294 298 274 273 268 252
351 345 348 356 346 399 452 456 400 306 291 290 372 362 299 291 338 331 331 321 288 286 280 273 274 255 250
330 332 344 336 438 371 357 337 341 368 292 356 350 299 332 326 327 317 315 316 288 276 275 265 254 255 252
321 332 327 359 350 325 349 349 341 337 330 329 320 271 308 302 301 297 297 283 294 269 265 259 252 247 252
326 367 347 328 313 317 339 325 313 310 307 302 304 304 299 294 287 278 264 268 270 273 263 261 255 247 242
437 326 314 306 339 307 306 305 298 292 290 279 284 275 278 273 271 267 263 261 260 257 255 245 250 247 246
342 312 296 312 298 310 304 297 291 290 284 284 283 282 273 278 281 276 271 270 257 255 255 252 254 254 238

GFSFLT2_2pvu_pres_021.txt.gz
Presure
410 441 431 417 419 419 416 418 418 412 412 435 419 395 376 321 350 341 335 296 277 298 290 287 292 264 264
446 430 420 411 407 405 399 399 403 409 406 397 412 408 403 385 404 346 309 334 331 288 280 285 287 287 282
418 405 404 408 410 408 404 400 391 392 396 408 397 397 388 325 326 321 387 327 318 312 303 294 293 286 253
386 291 294 194 387 391 397 396 403 403 398 397 406 398 408 383 362 358 271 321 325 350 302 294 294 286 248
197 420 397 385 380 378 378 385 337 368 394 381 392 409 398 396 343 329 330 305 299 283 295 291 282 280 265
431 431 477 559 561 390 374 380 369 306 301 418 360 403 404 403 335 324 321 319 316 312 296 288 275 275 267
506 514 520 520 529 540 377 371 324 287 292 407 328 316 335 396 373 324 309 306 305 299 346 318 300 297 320
467 474 484 493 502 514 374 364 371 363 372 399 361 315 307 396 392 331 358 330 341 339 351 320 307 313 311
451 462 471 479 491 460 366 373 362 358 382 428 422 309 313 309 392 386 340 323 307 324 345 335 324 302 289
436 450 472 470 369 366 361 361 367 356 417 454 480 411 312 312 302 307 367 346 304 298 321 296 292 325 288
458 492 366 358 355 350 355 364 403 427 441 427 339 409 345 334 316 304 297 366 354 314 320 293 292 279 308
415 351 347 340 342 350 352 350 434 426 398 356 337 350 318 383 376 377 374 361 353 346 316 289 335 303 284
340 331 325 334 343 334 428 395 484 390 394 309 303 291 289 383 369 356 354 350 349 336 327 322 314 290 288
318 321 334 328 328 343 332 326 341 370 370 353 386 277 374 350 310 296 294 331 344 314 330 328 297 293 280
321 368 353 332 311 324 324 332 326 325 328 322 328 330 332 302 292 326 319 321 325 317 321 315 291 275 274
361 316 307 332 339 326 305 307 305 307 305 314 310 298 293 298 298 296 298 293 287 314 280 288 267 276 262
327 323 301 300 288 295 296 291 288 294 291 290 288 292 290 281 282 277 281 292 259 264 265 278 260 257 260

GFSFLT2_2pvu_pres_024.txt.gz
Presure
474 459 440 425 423 413 409 407 415 422 424 414 412 410 408 409 414 406 420 394 368 305 308 319 264 260 265
431 413 408 402 403 401 394 388 385 378 374 402 405 399 399 399 404 409 402 406 397 368 304 295 293 282 298
421 460 447 438 438 438 446 482 420 383 334 371 391 237 398 387 389 403 411 389 380 369 406 329 279 286 279
439 423 412 408 412 434 476 302 193 566 324 374 373 377 397 396 386 389 397 401 415 422 345 382 328 288 267
414 406 404 403 449 483 504 528 545 468 469 550 375 373 381 391 402 395 399 400 405 412 407 345 338 291 291
397 401 399 430 451 464 479 492 520 514 448 435 568 371 372 387 398 403 399 407 404 435 391 393 387 325 296
397 397 431 435 451 457 463 474 489 492 509 542 532 372 372 382 391 399 399 411 410 400 414 386 351 278 262
394 434 442 440 448 456 464 470 472 482 505 521 373 363 372 342 306 292 400 403 411 402 409 351 362 371 302
432 437 447 456 466 485 508 518 498 403 379 364 365 369 370 361 373 412 336 338 410 406 392 335 326 378 312
437 491 518 359 356 352 355 355 355 363 370 363 357 357 366 376 386 411 325 315 403 390 323 314 311 306 293
528 416 342 342 341 342 343 346 351 363 366 368 374 372 399 422 413 371 305 308 398 381 307 298 291 292 288
337 334 329 326 330 339 345 346 344 343 390 430 430 435 449 433 451 389 306 300 357 387 372 307 363 324 316
331 317 317 330 334 322 361 354 462 427 465 396 399 399 397 395 407 307 300 299 290 344 311 314 323 320 323
311 343 452 332 329 322 322 353 362 348 339 344 355 305 303 300 297 380 384 311 291 288 290 299 320 305 304
359 335 338 326 327 312 315 328 327 329 334 323 351 325 286 275 379 366 363 362 363 354 345 342 295 281 308
310 328 330 324 323 300 304 309 313 313 318 321 324 336 339 336 328 296 307 338 337 337 339 336 334 321 338
316 301 300 302 298 297 296 295 303 301 307 300 298 307 308 312 314 315 320 321 323 322 325 328 322 327 299

GFSFLT2_2pvu_pres_027.txt.gz
Presure
256 250 65 453 448 436 422 414 416 447 446 453 413 399 391 400 414 422 430 436 435 426 389 352 297 276 288
271 459 443 428 413 440 466 457 446 436 428 427 432 451 543 380 380 393 412 410 416 431 417 403 312 304 293
445 426 413 461 448 445 439 426 411 404 406 407 410 414 422 530 380 372 381 405 404 423 429 419 358 339 294
412 405 455 430 431 428 409 394 392 394 438 449 469 507 556 421 498 194 278 395 400 403 410 412 392 357 298
445 443 432 425 417 392 393 416 441 432 444 460 477 498 529 558 456 411 371 374 401 398 402 415 411 397 349
432 426 428 409 392 428 444 440 461 445 468 476 477 497 518 537 420 580 382 368 392 399 393 401 406 397 389
441 428 388 425 448 468 506 517 525 520 490 481 473 487 494 518 493 456 415 369 374 404 399 389 397 401 424
412 405 454 520 547 557 506 429 492 491 487 483 461 468 489 513 489 437 578 374 375 387 399 395 393 403 408
445 517 461 454 353 347 355 357 358 360 362 381 416 467 493 520 542 562 376 373 376 379 394 407 399 415 406
418 417 374 343 339 336 337 342 342 340 345 352 356 358 363 368 367 368 372 375 344 289 281 391 403 404 409
372 339 337 327 320 331 342 348 354 353 356 359 356 355 358 362 365 364 364 321 292 394 406 393 388 401 392
332 327 317 323 410 382 354 391 439 476 453 415 417 419 433 422 376 372 372 375 391 332 312 336 396 396 388
316 313 349 330 327 336 340 358 330 340 369 425 426 384 407 400 437 469 474 436 314 310 305 328 382 389 372
345 334 337 325 331 329 330 329 332 340 355 344 378 321 396 395 393 390 387 303 300 304 303 373 372 324 320
318 320 324 317 321 319 313 315 315 322 328 349 363 356 304 302 356 389 316 302 305 300 305 365 358 304 298
325 307 301 306 299 303 315 301 297 312 316 331 332 345 297 281 280 350 355 369 309 303 292 358 347 334 305
296 300 298 293 294 288 290 298 302 298 290 304 314 319 321 328 311 355 359 366 362 355 290 288 290 350 302

GFSFLT2_2pvu_pres_030.txt.gz
Presure
174 229 103 131 61 407 465 453 442 428 416 447 458 451 453 458 460 458 462 518 405 407 430 480 493 471 369
257 265 420 480 461 451 433 418 430 458 450 442 433 433 434 429 422 420 423 431 508 430 397 390 460 464 480
357 438 467 441 432 415 425 450 434 438 438 426 421 413 408 409 410 411 413 411 421 484 402 392 435 448 454
438 450 430 411 443 471 464 444 427 406 408 422 440 447 455 454 451 458 456 408 409 418 472 388 389 441 437
437 414 438 465 456 437 411 446 463 524 525 467 475 475 479 477 476 475 479 489 509 409 442 396 382 433 429
401 462 462 441 409 463 565 575 549 511 509 508 511 520 519 481 479 487 494 512 527 565 423 433 378 418 421
456 480 434 451 451 431 434 362 358 361 357 351 366 384 472 469 464 474 486 505 529 557 420 436 372 380 403
476 450 454 420 397 368 342 343 345 344 347 345 359 357 370 455 452 463 485 501 527 559 428 435 366 369 404
440 430 370 362 342 334 328 332 343 346 348 348 354 356 356 363 428 481 514 524 532 459 446 386 363 384 399
392 349 346 332 328 326 404 428 474 469 381 352 363 354 358 352 356 374 536 436 423 437 587 372 365 380 399
339 334 323 316 345 333 326 330 336 352 409 416 414 416 381 356 357 355 361 401 572 595 371 364 365 377 399
324 316 333 330 328 336 337 343 350 337 343 388 425 380 387 426 365 359 360 359 366 367 369 371 378 386 392
345 332 325 310 318 326 326 323 332 344 352 342 410 436 404 403 454 380 368 362 365 327 314 301 375 378 382
311 307 316 325 316 316 314 317 318 324 337 357 352 324 382 390 440 447 374 376 381 380 309 392 389 375 373
323 317 305 304 305 312 304 294 309 319 326 339 343 355 302 360 388 349 386 385 377 370 322 313 335 384 398
299 301 296 298 287 286 292 298 294 299 313 319 327 332 298 290 304 388 380 376 301 293 298 299 299 354 365
294 284 288 285 286 284 284 277 275 274 294 309 312 313 324 350 316 377 310 302 304 297 291 368 374 384 371

GFSFLT2_2pvu_pres_033.txt.gz
Presure
208 162 215 128 116 238 290 63 342 470 462 457 447 439 472 472 464 477 476 474 472 474 479 462 434 445 466
215 223 284 498 471 479 468 462 450 440 433 483 480 476 465 456 456 451 449 449 447 445 450 462 489 507 421
351 500 490 473 462 450 437 421 443 468 462 452 451 448 439 409 410 412 408 403 404 420 429 437 449 470 511
480 475 457 441 432 456 488 450 449 428 419 505 538 566 558 554 525 506 474 464 459 453 424 407 417 429 454
450 432 417 410 472 499 471 457 452 443 445 474 460 385 375 379 386 434 549 518 498 489 462 457 416 415 427
405 435 468 502 489 454 437 416 412 414 366 347 356 354 366 368 368 373 486 492 490 496 487 483 463 420 416
464 451 490 439 428 396 371 356 353 346 338 324 350 347 354 356 365 363 387 472 478 474 475 505 517 482 406
467 445 433 371 347 341 336 331 335 385 463 461 402 366 359 358 358 355 369 474 467 464 485 489 516 549 409
422 365 351 341 336 323 326 336 337 336 339 362 425 467 369 411 354 356 365 471 474 497 505 511 526 557 402
347 350 334 324 334 328 339 342 345 352 368 336 403 414 408 421 359 361 363 402 510 541 534 528 547 565 413
346 320 333 335 334 328 326 322 330 342 350 349 356 431 388 406 414 360 360 369 545 428 560 553 543 412 435
325 321 323 319 328 319 319 323 331 326 338 360 356 437 419 401 440 356 359 366 413 471 439 428 430 462 379
317 323 326 302 314 307 305 306 312 323 331 354 377 342 390 402 442 367 354 357 366 390 572 618 567 371 363
323 305 304 296 302 297 303 298 309 307 322 325 365 336 367 426 422 395 358 357 362 368 366 364 361 361 369
305 295 293 296 287 285 289 291 290 299 307 321 343 323 303 382 367 392 375 368 352 319 370 370 366 375 387
299 298 280 284 287 285 287 281 279 277 287 302 328 346 289 311 375 369 381 401 390 380 281 282 296 373 371
294 289 294 296 288 281 280 278 279 274 285 285 298 325 335 277 325 307 296 314 314 313 307 308 370 373 376

GFSFLT2_2pvu_pres_036.txt.gz
Presure
199 167 154 219 223 226 266 418 420 452 466 454 61 147 469 466 466 488 461 496 496 464 457 459 461 462 471
222 119 261 77 479 491 479 472 468 458 449 437 421 434 514 519 493 486 482 483 485 491 488 482 476 482 436
516 501 487 468 459 449 438 430 422 430 471 486 495 490 469 460 458 510 582 574 496 443 433 449 456 453 461
467 460 442 433 525 512 500 479 490 480 455 461 456 461 458 466 473 495 450 464 471 559 572 504 456 427 445
441 463 501 486 468 455 450 441 432 426 444 438 390 370 371 374 369 364 363 365 370 374 382 563 523 477 458
508 480 457 458 433 425 434 449 373 368 349 341 353 341 346 345 346 351 351 352 360 372 378 384 504 510 491
458 463 435 439 393 352 344 340 337 336 331 343 357 355 363 435 482 437 372 363 363 370 369 381 475 484 492
435 435 395 342 367 333 328 332 347 352 339 345 362 394 344 427 428 422 403 383 365 360 362 451 471 469 471
409 342 358 330 331 331 329 328 326 334 332 343 366 359 353 433 425 419 433 361 355 357 379 487 479 476 469
340 350 337 330 323 317 319 316 322 331 340 347 359 361 375 434 446 432 435 360 356 367 514 415 527 519 506
342 331 318 316 322 323 312 305 307 328 330 333 375 392 379 397 389 432 364 356 362 520 426 482 544 541 536
320 319 324 310 320 308 312 305 302 315 311 334 383 393 390 398 442 397 355 357 363 521 419 551 561 539 544
324 317 303 302 293 302 294 304 298 306 308 325 377 392 300 433 397 374 349 355 363 521 421 445 587 577 591
310 301 297 297 296 284 291 292 294 285 303 307 325 332 295 400 385 366 347 349 357 521 438 413 402 398 401
304 298 298 290 278 279 287 283 286 290 290 302 312 378 293 367 378 385 357 346 355 354 371 479 417 410 389
298 291 289 295 290 286 284 282 282 283 288 288 302 321 380 374 360 372 383 356 304 352 350 353 353 349 349
298 284 278 276 283 291 292 282 277 283 280 275 290 305 372 281 342 310 299 370 352 284 292 360 368 380 373

GFSFLT2_2pvu_pres_039.txt.gz
Presure
118 186 228 235 254 432 503 495 492 485 473 464 466 69 466 468 468 466 347 367 475 476 479 478 484 490 426
235 250 503 499 517 613 594 573 553 489 503 499 502 504 507 507 509 74 502 93 522 531 534 535 532 451 456
415 554 589 577 564 548 528 503 479 464 470 479 469 473 470 466 467 473 470 485 468 462 466 485 470 467 482
534 530 509 499 485 471 452 441 435 439 457 453 453 429 426 429 428 436 424 466 444 437 460 485 508 561 533
509 486 464 441 431 428 444 453 432 377 353 370 355 354 354 351 350 350 353 357 360 361 361 363 369 379 444
471 438 427 434 439 390 371 358 349 352 334 337 355 350 359 364 373 360 362 432 416 358 355 356 358 362 370
432 432 416 376 364 366 361 343 350 349 336 341 342 345 352 365 375 372 354 426 431 436 436 376 367 363 362
424 374 351 342 348 324 320 329 333 334 322 323 336 337 357 377 370 364 435 436 423 415 423 426 371 369 368
359 347 344 342 332 321 318 315 315 315 322 329 336 344 388 408 390 396 440 408 407 425 439 371 367 366 370
350 345 332 330 320 318 307 299 312 311 312 306 323 333 383 392 394 379 441 431 398 363 366 365 368 372 388
333 330 323 320 307 315 302 302 296 299 301 308 318 337 389 373 413 403 386 362 360 364 368 420 500 441 426
326 324 315 308 304 301 303 288 295 290 287 289 316 329 388 305 381 386 358 357 363 369 498 433 415 561 542
333 312 313 295 301 300 293 292 291 290 295 295 310 323 386 301 407 361 355 363 362 490 420 407 586 573 554
313 314 302 295 301 292 294 293 296 289 288 294 297 314 383 292 382 367 354 345 358 552 405 396 610 574 569
298 302 306 305 299 286 289 290 293 290 287 285 289 309 371 301 361 363 344 355 351 390 421 402 392 411 420
300 299 275 266 266 264 269 268 283 299 287 287 279 299 325 285 341 375 288 288 347 345 355 386 407 408 410
293 265 266 261 262 265 286 279 276 277 295 286 281 290 308 280 295 279 350 279 277 354 345 344 346 349 351

GFSFLT2_2pvu_pres_042.txt.gz
Presure
182 114 83 248 292 496 546 536 519 507 270 518 515 519 526 523 518 519 521 285 537 554 535 466 480 436 223
154 243 275 533 544 526 505 485 472 446 467 463 468 469 470 475 478 475 467 470 490 522 512 521 532 444 96
261 343 563 619 506 477 461 447 449 464 470 453 418 411 403 389 385 407 453 462 481 462 458 471 495 505 507
357 567 551 470 451 450 454 454 438 392 368 367 362 352 353 344 351 358 356 358 363 369 428 470 463 459 462
522 477 446 438 445 413 397 376 372 341 339 339 348 349 354 358 363 362 358 353 358 354 354 361 371 382 410
447 437 432 393 373 369 374 340 340 346 328 338 333 335 335 341 357 357 371 368 382 383 385 366 432 357 358
443 405 373 361 357 356 345 341 334 324 312 319 311 321 326 335 368 406 403 405 385 378 371 360 356 386 481
389 368 353 354 351 336 322 326 330 320 307 309 309 313 321 326 408 394 398 398 397 399 442 441 439 428 432
368 356 353 338 332 320 314 315 310 310 311 307 301 293 304 330 394 409 411 413 416 421 426 430 435 437 438
350 350 345 334 333 322 306 301 293 295 293 299 299 290 286 335 380 417 376 390 373 365 358 356 362 367 365
345 326 331 330 324 322 304 305 289 288 296 292 294 298 309 330 390 405 378 355 355 353 360 379 408 405 421
332 332 324 319 316 314 305 308 306 294 293 300 297 291 306 329 358 335 374 360 360 361 424 411 407 434 494
293 288 283 285 283 293 314 307 279 295 301 300 300 290 305 324 287 371 361 356 318 405 409 404 600 608 578
292 288 290 302 303 300 279 276 274 275 275 282 302 296 303 320 319 344 353 286 354 408 403 410 571 590 592
326 362 342 343 339 277 268 268 262 275 281 279 291 298 301 306 339 333 275 286 344 393 442 388 402 487 586
320 322 326 328 348 366 345 342 251 321 292 284 281 300 298 310 285 329 301 287 384 347 376 400 426 417 386
415 401 348 316 370 360 364 365 357 373 331 300 283 296 294 310 289 281 299 280 381 384 363 356 369 374 387

GFSFLT2_2pvu_pres_045.txt.gz
Presure
234 164 162 208 246 256 276 253 553 208 488 485 483 484 477 476 481 483 481 477 476 270 512 527 535 541 487
158 160 231 243 258 397 504 474 466 459 483 410 402 399 385 386 379 383 388 392 410 436 477 479 471 420 519
191 235 239 318 501 462 450 460 440 416 387 375 375 354 346 344 358 348 357 350 350 356 372 384 433 476 470
237 251 528 461 452 459 416 401 387 391 357 350 349 347 342 334 320 317 321 331 349 363 364 365 368 373 390
267 523 448 444 419 394 385 375 369 346 336 335 328 333 328 330 326 327 328 346 352 355 365 373 374 369 369
516 440 430 393 373 361 371 357 341 349 322 328 320 322 319 309 309 312 322 355 402 402 408 406 393 381 378
433 434 391 373 360 351 347 341 339 329 315 312 316 317 307 303 304 306 322 398 410 415 470 405 401 389 385
417 415 375 362 347 342 325 322 323 333 312 300 303 307 303 307 308 307 328 397 409 380 398 414 445 417 439
393 380 371 364 347 330 321 326 314 314 313 304 302 298 303 302 299 312 342 384 309 306 309 361 371 382 407
344 340 338 329 331 335 338 324 318 304 305 307 305 295 303 309 291 314 346 296 367 352 346 349 361 366 364
331 315 307 302 296 292 294 292 302 318 312 301 304 303 310 297 292 314 390 356 355 356 354 332 322 414 421
314 308 303 304 309 314 314 300 314 279 299 283 267 281 299 304 291 303 291 349 352 367 306 403 399 464 575
306 302 304 334 333 306 283 341 393 301 271 266 277 286 287 307 296 310 360 328 363 291 421 385 429 565 583
292 279 328 324 321 339 322 321 329 384 267 254 267 287 295 300 301 304 356 286 310 309 424 382 413 448 564
290 339 337 319 324 332 390 377 374 364 372 395 350 299 296 296 301 340 292 374 288 338 394 405 383 414 456
351 341 336 328 332 376 388 388 370 354 363 370 376 331 304 296 302 367 291 362 355 347 380 382 380 378 405
307 347 344 332 355 363 377 374 367 344 357 376 352 324 298 295 291 291 276 284 368 366 361 371 380 394 376

GFSFLT2_2pvu_pres_048.txt.gz
Presure
245 277 278 264 241 223 222 231 199 260 412 489 476 434 430 424 415 412 405 399 400 398 402 413 428 475 503
270 244 234 219 217 231 230 258 461 464 474 425 401 391 380 372 368 353 352 355 358 360 362 359 374 381 392
242 226 218 221 231 239 298 449 453 425 413 388 379 372 350 341 337 334 332 334 330 336 336 342 348 364 377
225 211 227 235 262 461 436 433 401 385 388 363 353 343 341 337 317 318 316 312 314 317 317 329 342 360 391
216 227 248 263 435 421 413 385 374 377 369 348 346 327 332 334 316 315 318 311 313 310 316 323 410 403 408
231 254 448 434 421 416 374 362 345 363 348 335 338 324 326 321 310 315 310 306 305 311 315 409 420 418 431
257 444 431 390 397 383 370 361 353 345 342 318 330 328 325 316 305 304 295 300 301 308 312 398 385 386 403
433 405 373 354 346 333 328 313 329 337 343 324 335 325 320 317 308 308 305 310 304 302 342 393 310 366 373
383 369 355 346 336 316 307 302 297 294 297 288 306 323 318 318 317 317 319 310 298 317 346 359 359 367 353
359 354 342 332 324 312 307 298 304 296 301 291 307 295 311 308 300 294 308 310 302 326 380 353 350 356 363
345 334 326 319 316 306 294 316 323 316 318 318 334 315 293 277 286 283 303 308 312 328 307 315 353 329 329
329 320 313 310 335 337 325 353 342 318 382 333 324 312 300 267 267 290 297 298 308 335 346 337 352 351 392
315 304 330 338 364 349 358 321 239 340 403 382 320 331 380 267 266 289 290 302 314 384 290 355 390 394 391
304 353 345 322 318 317 354 352 343 328 408 382 370 368 376 348 294 295 289 302 324 300 347 366 393 379 399
347 327 316 320 419 413 401 388 374 382 387 384 361 363 367 355 329 301 299 348 288 339 342 361 386 387 392
315 325 370 384 392 392 387 373 362 371 370 359 351 360 356 328 308 296 316 289 358 352 344 359 371 382 381
337 362 361 361 353 377 370 363 366 358 356 351 353 356 322 308 295 307 293 302 346 338 340 356 362 381 395

GFSFLT2_2pvu_pres_051.txt.gz
Presure
201 206 214 263 263 307 306 270 224 221 222 236 250 277 462 440 410 413 408 402 396 394 392 391 390 393 396
209 188 252 300 296 262 219 231 225 235 250 274 452 430 406 389 387 386 374 366 358 360 67 357 363 362 359
249 236 289 274 234 227 217 236 252 268 438 430 407 391 378 375 363 355 350 340 349 343 339 334 332 331 331
298 277 257 214 217 227 242 257 351 432 423 394 385 373 364 360 347 334 330 328 331 333 327 323 319 322 321
266 232 208 224 233 255 262 402 375 386 402 372 373 361 361 343 339 333 319 318 317 316 313 312 312 313 313
232 216 227 237 258 408 386 367 349 355 351 329 324 348 358 351 346 323 318 325 320 309 314 309 310 310 310
225 233 250 305 393 373 358 350 342 339 326 308 314 315 307 303 308 343 328 317 318 314 312 307 310 318 319
236 253 408 384 369 358 343 328 321 320 319 300 303 308 310 317 306 300 323 324 316 315 315 317 320 316 305
273 397 375 367 359 344 327 317 310 306 319 298 292 289 294 320 350 320 305 312 317 285 294 305 312 304 340
386 369 362 350 336 326 320 308 353 355 365 354 296 347 321 328 316 339 326 313 269 279 286 296 313 324 344
363 357 341 329 320 323 360 350 334 322 323 320 317 338 345 284 367 332 346 308 269 275 290 303 319 322 326
350 334 321 317 342 332 331 333 338 336 368 358 365 342 331 391 369 326 334 320 265 274 298 309 318 333 364
324 316 331 329 327 326 377 381 407 417 413 395 395 391 387 375 362 317 365 273 283 299 306 316 295 357 360
313 330 327 325 352 377 369 369 387 393 399 378 389 388 371 362 365 370 344 330 328 307 314 296 358 356 371
330 325 326 384 375 368 365 388 365 374 371 374 379 363 361 360 363 342 327 315 300 324 319 355 351 358 380
326 342 374 371 373 371 379 395 362 366 361 361 363 354 353 358 332 320 309 306 324 323 353 348 349 363 380
264 353 372 375 377 375 368 373 382 360 353 356 356 353 358 322 316 304 311 292 312 354 334 344 353 371 403

GFSFLT2_2pvu_pres_054.txt.gz
Presure
196 183 213 206 210 215 213 262 259 313 269 247 221 221 229 240 257 389 432 417 410 406 408 409 286 405 405
205 209 207 207 217 254 147 313 299 271 218 223 235 243 268 444 419 412 396 384 384 386 390 384 374 360 365
206 206 215 267 241 316 300 269 220 224 237 246 277 392 385 413 395 384 371 368 364 368 365 362 348 349 336
211 237 243 307 296 269 211 221 236 252 264 398 388 373 363 352 350 371 359 351 344 343 337 340 337 332 332
247 249 295 288 225 233 240 239 287 399 386 360 358 351 353 350 333 318 322 349 338 334 334 334 327 325 322
303 290 276 244 229 247 252 398 376 370 365 343 341 334 336 333 334 317 312 300 299 297 332 327 323 325 319
282 265 232 245 251 412 389 374 359 353 349 330 325 323 325 319 325 323 300 301 305 300 297 327 331 323 320
237 244 248 417 401 385 371 353 337 334 339 322 316 338 355 361 367 377 299 285 332 338 312 303 327 326 314
245 262 411 388 377 366 348 338 326 323 349 342 332 339 329 331 345 378 368 343 341 325 341 324 308 323 322
425 400 381 365 354 344 337 333 350 335 343 338 345 448 329 334 350 342 349 346 289 323 323 347 330 306 280
392 372 355 345 335 326 346 345 342 353 399 391 376 418 423 400 366 398 419 340 399 367 324 326 367 272 268
369 352 338 330 326 336 337 371 397 396 385 373 375 404 397 388 382 397 405 390 372 346 318 364 327 267 287
348 333 324 334 334 332 364 379 373 387 389 395 381 383 378 373 385 396 373 370 386 359 358 345 339 326 319
328 321 333 329 341 320 345 391 391 373 393 389 371 369 364 380 377 369 360 368 361 342 331 323 322 354 308
325 331 328 344 355 368 388 426 402 376 378 376 373 363 365 360 355 373 364 341 326 313 321 298 356 344 373
329 333 341 362 371 396 424 442 410 380 375 364 360 363 357 354 362 345 326 311 308 305 357 336 341 359 358
338 347 365 391 435 391 394 406 416 387 378 358 358 357 351 356 331 320 301 353 315 356 331 346 343 341 346

GFSFLT2_2pvu_pres_057.txt.gz
Presure
221 217 214 211 202 190 199 204 210 205 215 237 316 296 281 270 262 232 228 236 249 376 431 398 419 422 432
220 217 205 192 196 204 209 206 217 232 313 288 277 263 253 224 242 403 385 391 391 400 401 392 394 398 399
211 195 194 206 205 206 215 237 286 304 256 261 241 259 400 403 393 383 373 367 352 353 378 375 376 376 380
196 208 203 177 217 236 259 302 281 256 227 267 409 392 385 377 371 368 360 350 345 334 335 350 366 364 360
201 210 213 233 239 302 289 257 244 271 401 395 384 371 369 367 362 358 350 344 335 331 322 322 322 361 352
148 182 248 277 296 261 226 269 405 402 391 376 369 352 349 343 345 346 337 327 318 312 318 313 318 316 309
213 169 296 268 245 256 308 404 386 379 377 358 338 332 331 329 342 348 352 358 365 365 324 316 308 304 316
230 267 246 257 271 423 401 383 371 357 355 341 336 339 338 335 346 344 338 336 338 341 370 372 321 286 306
241 251 266 408 413 396 377 366 350 338 346 346 347 408 404 388 400 407 406 452 386 329 321 351 364 354 338
258 322 429 396 383 371 361 342 339 338 347 349 391 411 396 374 388 312 422 431 415 386 349 356 327 345 338
451 420 391 374 360 346 339 341 343 344 361 393 396 371 376 377 377 399 417 415 412 411 418 406 371 346 317
413 385 365 349 335 334 337 339 344 361 385 401 427 395 377 383 379 387 397 397 401 396 384 379 381 373 350
374 357 340 330 331 334 339 349 367 382 406 433 446 385 390 371 370 377 385 401 366 366 369 369 365 319 314
348 332 327 333 338 352 366 382 409 427 435 413 416 389 370 368 371 379 369 357 362 361 354 347 340 328 321
334 332 339 356 370 392 422 419 411 410 398 426 394 385 361 364 364 353 350 370 361 346 324 315 335 356 361
339 359 380 414 432 426 433 436 439 435 414 419 379 370 356 358 353 366 357 342 316 313 360 311 359 335 328
381 414 444 463 481 472 462 455 457 450 438 388 372 358 352 357 345 328 315 304 327 284 357 336 329 333 319

GFSFLT2_2pvu_pres_060.txt.gz
Presure
233 228 225 223 219 222 223 222 225 223 206 204 207 206 210 214 289 309 286 274 269 269 263 254 309 406 265
229 226 219 221 224 223 221 214 199 205 206 207 219 228 315 298 266 248 265 254 250 408 406 401 390 387 380
221 222 224 223 213 203 189 202 205 220 227 257 310 278 255 254 254 378 415 402 391 384 375 373 369 366 364
222 215 205 200 191 199 203 182 188 146 304 257 251 243 343 415 399 392 387 386 379 366 362 359 355 356 352
199 193 194 204 213 162 189 134 266 256 246 236 279 414 393 385 375 374 373 366 355 343 335 335 341 343 345
200 205 219 145 247 135 136 243 179 250 280 417 404 380 367 360 356 356 356 354 343 332 330 324 324 329 331
227 143 242 134 144 232 239 249 275 423 406 392 375 356 348 339 341 352 356 359 358 375 351 348 344 345 339
187 132 134 235 241 252 274 434 413 391 374 371 355 339 332 333 342 361 394 444 431 409 406 376 347 339 340
219 247 245 247 272 426 425 398 379 363 348 349 338 342 341 336 359 397 419 436 414 394 387 391 396 367 338
237 181 271 460 439 406 390 373 357 343 335 349 345 353 360 370 387 400 426 426 393 385 391 420 418 413 395
258 361 453 412 388 373 360 351 346 353 357 369 375 387 415 441 435 414 407 403 381 399 406 400 396 398 385
424 428 397 374 357 347 345 360 372 385 393 415 444 443 440 411 433 391 399 385 386 382 384 390 399 404 407
413 381 361 348 343 375 395 420 437 433 432 432 445 432 408 427 387 388 375 385 388 376 390 384 382 379 375
371 350 345 395 436 465 476 502 486 465 449 454 459 421 420 389 381 373 373 370 364 360 367 376 370 369 364
346 401 449 375 437 484 492 523 499 482 458 455 440 410 389 367 370 355 357 358 363 362 360 345 341 334 329
438 389 387 350 369 374 457 471 476 469 453 439 381 363 361 350 356 360 357 357 333 324 317 313 318 356 349
332 320 319 316 315 322 346 359 363 366 363 365 361 353 351 339 329 330 332 309 312 359 363 372 343 340 329

GFSFLT2_2pvu_pres_063.txt.gz
Presure
229 221 233 266 248 241 238 234 229 226 226 228 225 218 210 207 203 204 207 216 221 241 275 278 272 270 269
223 233 272 242 236 229 218 221 224 220 211 205 202 200 201 206 182 143 154 176 271 260 255 255 253 402 395
246 272 232 222 219 217 206 203 201 200 197 203 211 201 138 138 166 230 253 251 238 393 417 404 395 387 383
238 216 218 206 204 199 194 195 200 212 250 298 197 135 181 255 261 253 338 424 415 398 386 377 371 368 367
212 203 201 197 200 206 213 251 295 264 139 136 165 251 244 447 428 415 403 396 386 374 364 353 347 346 351
198 199 207 218 228 294 256 234 131 136 245 261 213 449 428 404 388 378 377 372 360 350 345 347 344 347 351
212 222 240 260 230 223 133 159 243 275 349 436 420 396 377 368 356 348 350 345 346 354 355 358 366 421 444
242 253 230 236 168 245 252 292 413 432 401 388 374 359 346 331 337 341 353 359 362 375 381 389 413 426 421
219 228 178 241 250 299 367 436 401 383 365 365 353 366 366 358 357 356 363 371 390 404 425 439 413 405 405
233 174 246 299 363 444 413 381 386 404 413 433 428 431 431 418 416 403 409 424 444 458 465 403 394 391 386
247 265 333 394 417 378 406 455 398 417 485 531 522 492 478 476 445 419 419 429 450 457 406 382 379 383 387
327 358 435 386 387 463 386 343 383 496 502 525 512 486 472 459 445 421 419 429 414 383 373 375 375 383 392
371 415 371 384 372 338 331 325 333 390 489 505 487 463 446 431 423 420 395 389 377 367 371 378 389 390 397
396 384 344 352 331 324 319 314 315 354 379 378 395 397 389 384 378 370 366 365 370 366 364 370 370 372 374
374 342 348 325 317 327 364 364 368 324 327 356 357 360 356 362 365 362 367 369 369 367 374 372 368 366 367
360 343 321 312 344 348 349 356 360 359 364 352 348 344 319 320 320 321 332 315 307 324 336 341 340 331 332
341 318 307 348 335 342 345 289 279 382 383 383 377 373 378 386 322 378 367 339 336 332 335 336 339 350 377

GFSFLT2_2pvu_pres_066.txt.gz
Presure
223 227 229 231 235 234 246 241 224 252 241 228 226 222 219 212 207 206 205 206 206 205 207 211 211 173 145
232 229 229 236 237 246 228 243 244 224 225 217 204 205 205 205 203 204 207 210 248 281 144 134 185 163 274
229 236 241 247 240 238 242 216 217 201 204 205 206 211 245 270 264 253 230 143 225 140 139 245 252 254 262
240 253 243 239 236 216 206 196 197 203 221 229 265 258 240 236 189 139 137 139 300 464 299 343 423 412 402
238 242 227 213 204 194 203 214 229 259 253 246 229 237 165 136 372 444 431 412 410 401 395 391 384 380 379
219 206 198 192 205 215 227 257 241 240 223 230 218 254 433 417 397 385 386 380 373 367 358 351 346 345 347
195 191 212 220 240 252 245 229 218 252 157 222 431 402 403 423 414 404 397 391 386 382 378 373 368 366 359
218 219 236 248 242 223 226 248 275 312 430 413 444 382 354 355 448 436 432 414 404 399 392 389 385 379 373
247 244 238 212 233 246 258 297 434 399 409 372 352 346 347 558 538 498 465 455 454 446 440 437 434 433 431
233 211 236 241 255 274 428 410 391 381 357 341 333 332 510 521 494 478 470 463 460 461 462 456 434 480 451
231 239 251 264 337 439 387 388 368 350 336 388 383 347 397 443 478 481 478 473 471 447 422 413 407 408 407
241 256 316 425 421 384 369 355 344 329 378 371 380 336 380 376 382 378 386 386 376 382 381 386 385 385 386
319 456 433 395 385 350 350 329 362 368 383 396 373 376 333 341 359 374 376 366 365 366 370 368 379 384 391
454 415 397 361 367 337 320 354 364 380 292 310 405 384 379 376 366 346 335 335 349 361 366 377 378 393 372
410 372 339 355 331 316 350 367 388 308 333 335 331 342 367 335 335 341 343 369 366 376 374 368 328 326 345
343 363 342 322 314 342 287 351 315 324 318 310 309 316 316 316 320 310 308 307 312 316 319 324 334 352 371
369 332 317 311 341 347 369 312 320 308 307 316 313 300 296 294 297 293 310 312 304 299 309 314 320 315 318

GFSFLT2_2pvu_pres_069.txt.gz
Presure
244 245 235 234 230 233 232 228 233 240 242 254 254 242 246 249 225 223 219 208 206 205 203 206 206 208 212
218 220 218 226 232 222 233 240 246 252 257 242 246 225 219 203 203 203 203 207 207 220 261 230 263 261 264
237 232 224 233 234 244 245 254 246 238 238 210 202 205 215 236 254 263 259 255 247 233 232 232 236 240 215
255 249 243 249 241 255 240 238 211 207 202 201 221 238 257 253 245 235 246 272 303 437 444 274 139 139 264
245 242 237 255 238 230 206 208 195 215 224 251 252 241 225 249 268 288 401 424 410 395 386 376 367 363 404
240 248 233 223 199 200 200 227 229 247 249 237 228 244 264 279 408 402 388 375 370 370 360 355 384 392 394
224 212 197 199 197 213 243 245 248 227 230 237 256 265 395 390 381 372 376 399 437 570 527 487 468 436 406
199 194 219 218 235 245 244 219 229 239 257 261 352 389 374 369 375 404 375 393 490 515 521 518 479 459 437
219 232 241 244 236 219 228 239 250 261 379 406 373 366 350 374 398 399 339 387 414 447 464 471 466 466 462
242 241 221 227 234 241 250 257 291 413 391 373 346 372 395 389 319 403 337 382 383 388 408 426 434 438 441
224 226 232 241 251 261 428 422 396 383 364 345 390 406 410 296 386 411 384 353 385 386 381 373 380 401 407
231 237 247 256 392 428 405 381 370 354 368 385 357 333 372 367 351 349 356 370 324 355 343 363 384 384 381
245 255 440 439 414 378 358 355 341 333 366 342 332 334 331 329 328 322 323 332 325 329 339 353 366 356 368
459 435 399 372 352 364 343 327 372 354 336 330 320 321 305 313 306 308 313 309 315 318 321 320 325 332 359
352 337 322 315 351 331 318 364 361 315 312 317 315 310 297 294 298 303 304 312 316 307 313 322 314 320 326
321 345 355 334 323 319 351 371 325 312 298 298 294 299 303 315 332 327 322 331 347 348 354 351 348 318 318
375 347 329 317 308 351 351 344 306 298 306 292 286 288 298 323 346 350 344 330 308 308 306 307 304 378 391

GFSFLT2_2pvu_pres_072.txt.gz
Presure
231 210 141 165 145 197 228 236 241 253 256 252 253 256 250 245 258 246 245 238 214 205 202 203 204 204 206
215 223 219 208 217 233 243 254 272 257 251 249 243 243 255 244 239 201 204 203 209 252 226 256 258 254 253
231 182 231 242 252 253 256 257 250 248 247 246 253 244 208 205 210 227 237 264 243 236 231 235 261 266 285
247 257 249 236 265 259 251 244 234 241 239 218 205 209 221 245 257 251 237 241 247 258 272 292 396 417 409
255 248 242 260 241 236 234 229 217 203 207 220 232 246 245 236 240 243 251 263 279 355 407 393 394 422 422
244 258 243 232 225 223 198 193 207 231 231 241 246 229 235 238 253 267 282 327 398 380 373 417 410 380 463
225 221 212 194 195 221 212 220 234 243 246 226 227 229 243 259 276 327 402 372 399 429 397 365 353 418 506
193 194 204 223 218 234 241 244 247 230 233 225 239 254 267 344 392 390 435 436 427 419 397 359 410 399 415
222 221 234 241 244 250 246 229 230 227 240 257 270 381 381 371 407 426 383 374 434 419 413 341 302 394 396
239 243 247 245 223 221 219 229 251 265 435 410 380 370 344 377 361 352 343 335 330 336 339 339 358 378 389
241 234 231 232 229 237 263 342 431 410 385 353 347 383 364 339 328 330 317 319 317 321 320 325 319 335 362
237 229 235 259 372 391 361 342 335 322 337 341 374 345 326 313 309 314 318 313 309 313 314 317 314 319 333
256 352 405 379 351 333 328 383 358 340 324 357 327 320 319 313 294 298 297 308 325 325 322 339 325 316 324
320 372 346 332 322 338 347 335 323 363 366 322 315 312 302 304 300 302 319 325 333 345 356 350 367 380 330
341 332 323 312 354 334 321 316 355 366 325 317 311 313 302 316 321 340 347 339 322 311 322 318 309 314 323
320 310 332 345 330 320 314 357 358 328 304 305 300 300 331 361 326 312 303 300 302 300 298 301 304 304 306
304 294 345 324 315 307 350 347 357 314 301 298 296 323 310 302 291 289 288 286 289 284 282 311 307 303 298

GFSFLT2_2pvu_pres_075.txt.gz
Presure
227 225 225 225 224 234 243 259 251 239 240 241 238 185 238 243 258 259 249 245 247 250 250 243 240 226 222
224 223 217 216 253 258 257 252 243 253 254 253 243 240 269 268 241 241 243 242 232 214 198 199 197 211 215
229 229 236 256 272 253 250 249 252 257 260 248 242 265 240 232 221 201 209 220 220 219 237 262 249 242 242
251 240 251 253 251 250 254 261 245 247 260 241 217 203 207 218 222 230 240 257 251 245 235 234 242 252 262
250 252 252 258 258 260 252 247 234 205 202 208 220 228 225 238 255 256 255 235 230 237 242 252 274 366 382
254 257 258 248 242 229 199 205 210 220 216 221 232 249 255 252 230 235 238 240 247 264 299 409 436 437 436
242 230 201 200 208 210 214 218 227 241 254 251 243 230 234 235 241 247 267 326 419 429 410 386 403 417 420
202 210 214 222 231 238 245 247 249 249 247 232 230 238 246 267 292 400 417 395 398 366 348 341 337 337 341
237 238 239 240 241 241 238 229 225 234 241 245 263 281 383 364 380 373 413 377 343 336 328 317 324 326 322
236 236 235 244 223 226 229 242 253 278 399 372 355 353 353 369 368 400 353 344 325 314 314 311 309 309 311
221 217 223 233 245 265 291 306 336 367 349 331 339 359 350 331 358 340 325 331 312 310 311 331 337 328 324
231 270 292 299 290 345 366 347 336 327 361 348 334 330 355 344 320 316 309 309 306 325 345 351 348 331 343
283 273 280 373 353 334 324 318 355 344 334 321 322 364 336 317 306 297 292 316 360 330 322 323 313 317 310
285 384 355 335 322 312 306 345 332 326 323 367 358 327 315 310 300 307 355 316 306 300 302 307 302 296 298
336 354 333 318 305 331 339 321 315 315 345 379 321 309 308 322 322 324 299 290 288 282 284 293 299 310 306
363 337 320 307 293 353 327 314 307 341 371 320 311 303 319 309 304 292 282 280 284 283 277 276 279 280 309
354 327 311 301 291 348 324 309 312 363 324 305 300 301 322 285 285 257 265 277 276 258 272 274 240 290 304

GFSFLT2_2pvu_pres_078.txt.gz
Presure
243 223 229 226 229 232 225 226 224 231 232 228 230 247 265 255 248 246 246 259 245 249 242 245 242 240 241
245 239 242 230 230 230 234 236 232 230 231 253 256 259 257 249 253 258 245 257 254 250 245 219 217 216 216
257 247 239 237 230 230 228 240 243 245 251 264 260 262 261 254 256 242 206 203 205 205 219 221 225 229 240
283 280 267 265 267 271 271 261 256 261 261 258 255 231 204 207 211 216 222 229 229 235 245 252 254 248 242
286 280 276 268 272 267 264 268 253 211 202 213 217 222 226 237 242 252 256 258 250 241 237 218 224 237 254
281 281 277 264 257 251 194 215 219 232 237 244 248 250 251 249 244 241 238 239 245 250 261 263 276 294 420
214 230 233 235 238 239 239 240 243 241 237 241 238 232 237 244 251 255 260 266 271 282 314 380 367 374 384
220 222 225 228 229 232 234 233 230 233 241 244 253 253 260 267 272 287 308 323 367 390 415 380 365 352 342
227 228 228 229 231 227 233 238 247 262 276 280 295 304 306 298 320 388 402 379 361 380 356 345 335 335 315
227 232 232 244 229 238 243 273 308 274 278 302 364 357 363 378 374 368 349 341 355 344 336 339 313 304 313
243 240 229 241 278 303 289 269 277 364 347 333 338 360 354 340 341 335 335 344 337 326 313 328 345 357 346
232 248 306 296 274 259 276 364 345 328 322 313 330 333 329 328 356 354 333 330 322 327 355 312 313 311 311
361 296 270 257 255 374 358 338 321 310 353 335 322 318 354 372 337 321 295 313 358 306 301 273 281 292 281
259 263 256 261 395 365 338 322 305 338 340 322 312 346 376 334 314 292 305 320 294 284 272 293 277 281 288
247 273 284 288 382 354 326 309 301 349 331 316 354 364 325 312 300 315 312 294 269 258 270 276 283 266 275
256 285 279 299 379 349 319 294 348 343 320 306 357 319 306 318 335 296 289 270 271 279 267 263 274 268 269
281 276 276 344 373 348 317 292 354 340 313 351 329 301 296 323 291 273 273 274 271 266 264 264 263 262 253

GFSFLT2_2pvu_pres_081.txt.gz
Presure
280 289 269 251 245 243 243 238 233 234 230 223 220 219 232 230 229 227 229 240 242 265 253 249 251 255 251
314 277 282 257 263 239 239 232 242 239 234 249 232 240 239 238 247 245 242 265 263 254 259 264 258 260 256
305 299 292 283 275 266 252 241 247 254 258 255 261 265 262 267 281 275 272 255 247 206 205 205 204 203 205
286 287 290 292 295 306 300 304 304 301 301 298 292 289 286 248 224 200 222 226 232 236 238 241 243 248 250
235 235 233 235 245 238 236 234 235 235 238 237 236 239 239 241 242 241 241 239 239 240 239 240 240 240 240
227 226 224 221 216 216 221 230 229 223 235 240 241 244 243 244 243 243 250 257 265 272 273 273 271 276 276
225 227 238 215 233 239 240 237 245 252 241 241 238 243 254 259 262 268 278 291 280 274 278 283 293 294 294
232 234 236 239 238 250 247 232 241 239 241 254 264 280 311 319 330 297 276 288 316 359 361 399 389 388 391
235 242 247 251 253 233 235 247 374 325 305 279 281 260 275 284 298 355 360 344 335 358 353 353 360 349 348
249 254 239 228 231 248 345 286 260 272 270 277 377 360 343 348 360 344 356 344 336 329 337 337 335 331 320
232 226 229 237 253 304 278 259 264 292 294 359 342 331 319 331 349 347 333 357 361 344 329 327 325 325 342
216 233 246 272 301 281 259 260 287 289 371 339 320 310 310 335 327 329 370 351 334 314 346 330 307 307 282
237 245 268 310 281 252 265 288 282 386 359 325 305 296 333 320 315 369 337 332 317 331 315 298 278 268 271
252 255 324 250 263 270 280 278 331 384 359 312 294 342 323 314 365 337 316 298 331 300 278 268 266 260 264
301 327 261 260 281 272 272 282 358 381 357 306 362 339 316 361 336 309 297 317 302 275 268 274 273 273 273
303 254 261 282 275 277 285 345 344 360 359 303 365 332 312 361 307 299 315 296 274 271 262 261 265 255 265
266 268 285 286 273 279 284 346 337 369 363 319 291 320 330 335 345 308 282 275 265 263 254 257 260 255 253

GFSFLT2_2pvu_pres_084.txt.gz
Presure
247 226 321 318 317 318 288 270 268 274 263 248 254 241 240 231 231 229 244 235 227 226 227 230 226 237 248
220 230 270 311 314 332 304 302 271 269 277 268 255 253 235 232 235 239 248 233 246 234 237 246 246 246 279
229 234 239 243 231 239 241 249 303 311 311 306 296 271 275 272 271 268 258 261 256 264 273 305 282 273 226
227 219 222 235 238 227 225 226 223 228 227 228 229 230 229 230 232 231 230 229 228 236 224 222 233 232 234
233 219 227 224 230 232 237 239 245 247 250 237 257 252 246 244 257 257 243 240 248 249 248 246 243 242 240
244 232 207 236 236 247 250 241 256 240 234 237 239 240 245 248 262 282 287 280 272 266 263 256 254 256 260
246 239 226 227 232 241 237 236 233 237 241 247 249 255 283 328 291 273 274 280 275 278 276 278 280 280 281
246 238 240 240 238 239 239 236 238 242 251 299 309 299 291 278 277 303 302 344 376 375 370 369 380 364 359
241 241 247 240 223 234 237 239 258 248 314 294 275 263 278 303 301 372 356 342 334 331 352 349 349 350 350
243 245 241 245 246 236 269 256 306 319 253 272 282 288 292 319 373 351 328 316 343 332 332 335 332 330 337
248 236 244 231 241 288 322 323 292 260 279 282 278 281 321 361 349 335 313 350 323 323 371 353 337 325 324
263 250 238 234 266 254 268 260 270 284 284 275 279 328 369 350 327 318 348 336 337 358 334 321 310 308 325
257 243 229 242 270 263 280 284 286 295 276 273 281 348 368 349 313 298 335 320 367 327 307 340 322 302 280
252 235 259 295 258 280 276 292 295 275 274 280 299 344 372 348 301 347 328 357 335 306 326 313 283 277 265
238 240 305 260 270 277 274 292 274 268 284 289 308 355 390 331 325 352 308 349 313 321 303 281 272 269 272
242 309 262 263 287 282 266 287 265 273 285 304 328 364 392 321 310 343 331 321 299 321 280 279 265 256 263
255 300 252 275 293 282 285 286 267 280 302 337 362 371 393 320 290 336 350 303 315 294 280 271 266 259 257

GFSFLT2_2pvu_pres_087.txt.gz
Presure
281 265 253 236 227 223 242 231 223 233 246 247 282 312 300 287 277 260 260 265 250 239 243 242 242 235 238
273 262 243 227 219 233 247 241 230 208 239 236 245 242 240 235 248 290 272 277 274 272 263 252 251 244 241
268 249 231 217 221 239 242 243 235 227 245 251 252 248 245 239 236 234 233 230 238 255 273 259 255 262 268
254 237 222 217 218 231 248 249 237 236 243 239 242 247 236 246 244 233 228 234 250 244 236 236 231 231 234
237 225 216 228 216 247 240 242 235 248 245 239 227 241 244 239 243 248 250 253 251 244 248 243 237 238 249
229 213 219 221 219 245 232 237 251 253 249 252 249 245 256 265 254 255 326 316 316 313 308 305 298 292 291
213 217 221 213 237 238 238 255 250 247 246 237 265 265 337 335 319 290 265 277 291 294 298 304 307 310 293
212 217 223 211 246 233 261 269 258 249 242 252 270 282 278 269 278 300 292 288 296 335 370 362 355 351 358
217 220 222 245 233 237 232 267 255 234 290 279 280 285 293 299 307 285 289 300 391 359 341 331 329 347 351
225 210 238 239 231 239 237 258 238 282 281 264 280 288 307 299 281 284 294 362 379 331 314 322 335 337 333
217 228 239 231 234 233 256 229 255 271 261 288 284 296 288 274 280 290 315 363 379 315 350 324 324 326 365
233 236 233 225 252 253 250 244 293 255 295 290 261 291 278 268 273 295 328 362 375 302 337 330 359 341 323
235 230 226 264 256 246 230 296 296 265 297 287 284 288 282 267 286 325 347 360 370 348 318 355 334 313 298
229 247 257 261 249 230 272 305 293 289 295 291 288 293 268 286 346 358 364 390 347 350 336 338 308 300 316
249 249 267 247 230 253 296 302 313 299 295 293 297 273 281 368 366 368 369 385 324 353 348 316 317 318 286
241 254 254 238 247 280 304 323 310 285 292 294 296 279 353 356 356 367 362 375 294 375 351 303 325 283 278
253 253 244 245 283 309 295 299 302 298 293 299 279 288 366 333 367 381 363 386 298 336 347 314 294 276 271

GFSFLT2_2pvu_pres_090.txt.gz
Presure
253 242 234 239 281 279 263 243 231 222 226 219 246 244 247 244 247 244 249 258 248 251 252 290 256 256 258
243 235 234 280 283 274 253 236 226 223 228 224 250 242 241 244 250 241 239 234 245 244 249 242 232 308 233
236 235 279 284 267 257 242 229 220 224 228 211 246 238 249 250 239 241 245 241 243 241 239 240 238 254 250
233 275 272 264 255 248 230 219 224 225 225 231 241 233 263 266 261 257 243 262 273 267 306 272 257 247 245
275 260 269 254 251 237 221 218 224 225 224 245 232 233 239 274 244 246 293 280 276 293 318 325 328 310 259
262 254 267 258 243 222 213 222 227 220 237 240 241 236 266 257 277 302 285 290 292 299 305 305 280 281 277
254 254 261 243 224 213 218 225 227 234 246 236 232 262 261 262 280 266 288 291 306 314 302 290 291 299 308
243 256 244 226 207 215 221 219 232 243 241 254 269 257 242 292 273 281 294 282 298 292 280 281 291 348 381
244 243 229 208 210 212 216 234 239 237 266 271 261 239 307 296 275 303 290 290 293 285 279 278 324 377 355
242 236 217 211 210 217 240 237 239 264 273 262 237 315 305 295 300 298 293 293 296 280 279 342 361 359 331
234 222 214 214 234 240 232 242 253 265 264 238 301 334 317 303 301 295 295 303 285 299 371 365 364 343 313
225 209 214 236 236 233 245 244 260 276 237 269 319 324 314 294 288 295 298 293 295 385 362 380 379 316 338
213 221 237 232 233 241 232 253 263 266 247 294 285 314 305 299 293 296 296 284 356 347 358 387 389 360 320
237 235 232 235 236 233 244 261 267 245 291 285 275 321 303 301 298 300 280 302 359 360 368 373 359 346 357
234 233 236 241 242 243 253 262 261 270 306 345 335 327 292 289 296 302 281 310 335 354 382 361 329 327 347
233 227 236 229 241 248 261 271 254 287 278 297 317 332 311 290 296 291 289 307 328 363 384 390 306 329 323
223 225 234 238 239 253 262 251 276 289 279 295 333 325 309 295 294 294 293 313 328 376 369 418 321 321 309

GFSFLT2_2pvu_pres_093.txt.gz
Presure
200 227 226 250 243 241 239 235 270 275 266 255 244 228 220 228 228 221 256 244 239 251 266 264 254 245 247
235 241 247 233 247 224 235 275 267 271 257 252 236 222 221 231 220 243 251 244 238 248 277 257 234 236 242
250 243 233 252 234 237 260 264 264 258 254 243 227 216 226 232 220 251 246 242 251 270 266 238 273 285 275
241 235 241 236 234 241 271 252 263 255 244 231 218 223 226 221 248 245 241 279 273 272 249 314 291 283 284
241 244 238 231 250 252 257 246 255 244 234 213 214 216 219 247 245 287 284 270 256 275 297 284 267 302 301
228 234 234 235 245 253 252 247 243 239 223 213 213 235 243 263 269 282 258 243 320 304 300 285 288 306 300
233 231 236 249 254 251 246 241 239 231 215 223 233 243 257 259 287 273 251 325 315 299 295 283 303 300 304
235 236 255 257 249 238 241 236 230 224 221 243 242 251 244 273 286 257 314 337 324 312 304 302 297 294 304
257 253 263 251 243 242 236 230 219 226 239 241 247 243 256 275 272 283 304 291 319 307 295 292 293 297 304
260 243 251 239 240 236 228 220 242 236 239 241 244 249 267 285 262 352 328 325 312 303 297 292 293 300 287
245 246 241 236 237 225 224 243 235 237 235 231 245 256 265 252 303 296 341 335 316 306 291 294 300 283 356
271 296 242 240 232 237 239 234 234 232 237 243 245 259 268 261 304 292 327 337 315 292 294 306 282 311 345
242 243 242 241 237 233 235 228 229 231 244 242 250 261 259 292 296 282 330 328 323 294 293 308 294 321 352
259 255 235 230 238 229 226 227 228 237 241 246 254 279 257 299 279 275 326 307 303 309 303 299 300 327 368
238 234 233 236 216 228 227 226 235 237 246 252 280 253 290 289 267 328 333 318 327 315 311 283 302 332 387
232 239 230 221 215 229 225 234 234 242 249 279 261 284 297 292 334 335 333 322 321 314 313 280 300 333 382
206 224 223 217 230 234 231 234 240 243 284 261 287 303 276 313 331 336 333 316 316 310 301 284 293 323 371

GFSFLT2_2pvu_pres_096.txt.gz
Presure
179 178 180 188 193 198 245 246 248 250 238 237 268 268 257 268 254 246 211 223 224 226 254 254 250 246 244
179 182 190 192 251 234 243 248 234 250 230 238 264 258 256 254 250 226 219 215 232 255 272 280 292 291 280
190 189 230 220 246 228 240 235 251 237 233 254 258 254 252 250 243 229 225 248 258 263 283 294 296 266 259
214 229 228 237 233 241 239 251 234 234 238 260 251 243 249 244 236 224 239 249 256 260 286 289 258 291 328
256 248 239 224 248 238 243 237 232 238 255 251 245 248 244 238 221 245 244 252 261 280 286 259 316 317 333
245 223 245 249 237 232 236 230 236 256 253 240 240 242 237 223 247 242 244 243 265 280 267 365 343 316 295
239 248 238 238 237 232 232 242 249 250 250 235 246 235 228 247 240 241 241 254 267 273 271 315 342 331 327
239 243 251 232 233 237 254 242 246 246 242 248 236 236 244 239 237 238 251 253 264 288 273 313 334 333 322
250 240 237 233 240 253 250 248 290 277 251 238 239 237 237 232 235 242 245 254 258 284 322 298 307 332 326
237 235 235 252 249 256 300 290 251 243 241 245 236 236 228 236 240 242 251 260 277 267 306 286 277 326 328
236 243 253 262 258 261 247 246 250 245 236 240 225 232 229 233 240 249 257 266 282 272 299 278 334 318 302
253 256 253 253 252 246 241 236 236 235 237 216 223 231 229 235 244 255 264 284 270 333 275 341 340 333 336
258 248 243 261 245 245 236 236 239 237 226 218 227 233 233 241 249 261 281 265 310 319 332 338 339 333 324
255 247 247 240 235 233 240 234 224 233 230 240 243 235 242 249 262 277 264 305 318 336 349 338 337 334 310
254 242 238 238 238 225 228 239 244 246 249 245 236 241 248 273 269 277 314 327 360 360 347 331 322 318 312
232 236 236 237 230 227 235 239 246 251 240 241 245 250 274 260 299 318 368 363 338 324 345 347 341 347 332
227 222 234 235 229 229 235 248 257 248 243 245 262 275 255 287 351 366 347 329 358 332 357 371 370 351 366

GFSFLT2_2pvu_pres_099.txt.gz
Presure
187 192 193 193 197 184 202 202 240 231 240 230 230 242 251 239 240 266 255 246 257 248 240 227 258 262 266
193 193 195 195 149 203 226 255 224 241 229 238 251 251 241 237 259 262 245 247 252 241 238 234 255 255 262
191 207 211 216 209 207 238 251 241 236 235 242 232 248 238 243 257 245 248 247 244 238 255 249 251 255 267
195 216 241 238 257 247 258 238 235 229 246 233 237 237 246 253 254 243 242 250 240 249 244 243 250 257 271
248 243 250 271 243 260 238 239 227 246 248 236 235 240 253 255 254 256 250 242 247 242 239 241 251 255 269
246 266 271 263 252 234 241 236 242 253 235 235 241 253 271 283 271 256 242 245 241 237 237 243 250 257 271
260 268 257 252 236 248 241 255 235 237 237 251 255 280 255 246 243 248 242 239 229 238 238 247 250 258 271
260 244 249 248 238 231 250 234 237 237 259 251 254 254 252 255 242 240 241 220 228 239 245 246 257 269 298
256 247 244 232 237 247 236 240 250 257 255 254 248 245 244 243 242 238 228 226 236 243 245 255 265 289 272
255 241 238 241 248 238 241 257 260 245 254 255 249 240 240 241 234 230 238 248 244 245 254 263 286 265 307
240 252 247 238 239 253 268 263 251 244 243 238 243 240 219 234 249 251 251 248 248 257 267 280 271 311 328
246 234 237 242 260 269 266 255 246 240 236 243 231 240 239 247 253 262 252 255 262 279 276 301 357 359 359
236 236 248 258 237 219 231 248 246 237 231 227 231 236 251 260 249 252 257 263 285 269 381 371 352 331 324
235 250 249 237 257 249 237 228 225 237 240 230 232 242 253 248 249 256 279 277 323 374 342 328 333 359 352
245 248 238 252 238 228 221 215 219 219 231 238 238 247 244 248 256 283 275 352 363 332 334 356 338 330 350
250 237 242 235 223 217 214 217 218 218 229 236 243 247 245 253 287 280 293 372 339 371 337 347 319 358 373
244 229 236 224 219 215 213 211 218 218 228 235 244 244 249 277 274 291 331 358 341 328 327 345 325 217 413

GFSFLT2_2pvu_pres_102.txt.gz
Presure
177 180 187 187 182 195 195 194 201 205 233 235 270 241 253 240 232 240 252 237 240 261 267 258 252 251 244
185 200 185 191 197 194 197 203 205 222 256 267 241 250 239 237 243 254 237 239 266 275 282 276 261 244 250
197 194 197 195 198 196 210 216 239 248 277 260 250 241 238 240 251 240 240 270 292 261 254 256 248 251 247
201 193 197 204 205 211 258 279 274 276 256 242 246 237 231 244 238 245 269 260 253 253 255 260 245 246 234
202 204 205 213 223 243 273 285 271 234 247 243 241 231 245 238 251 267 260 255 262 250 244 245 246 238 225
213 215 253 329 285 293 252 253 259 252 250 248 237 243 238 254 258 260 256 252 244 243 243 244 237 240 252
275 255 269 264 285 246 262 261 254 251 241 239 243 244 259 263 247 250 242 244 245 229 235 251 256 256 254
268 276 266 264 273 260 256 245 244 243 246 243 249 282 269 256 247 238 246 236 240 246 251 260 261 256 258
264 256 273 263 251 250 253 244 246 246 239 257 274 260 247 243 244 236 232 237 244 253 258 249 255 266 278
277 275 264 253 251 254 238 254 239 240 262 237 229 241 239 241 243 246 239 242 251 249 248 258 267 291 285
273 264 251 247 247 254 240 237 238 263 246 255 240 232 223 225 228 242 241 253 246 248 255 284 284 332 361
258 249 254 257 246 236 238 239 260 240 251 237 230 221 222 225 228 239 243 246 247 255 283 283 371 365 343
256 260 252 239 231 236 240 255 241 246 235 226 221 219 217 222 229 238 241 251 251 286 281 309 356 351 347
251 231 242 234 231 232 247 244 236 235 226 219 220 215 215 222 224 237 248 245 278 277 291 378 348 338 317
235 244 233 230 228 242 251 237 228 232 222 218 214 213 212 219 226 235 252 252 280 284 296 337 349 320 320
236 227 227 228 238 246 244 235 230 226 218 216 206 211 215 220 225 235 255 259 282 286 322 346 316 303 319
228 225 228 237 236 238 246 235 229 225 216 210 210 210 217 221 228 236 240 264 287 285 311 348 295 278 288

GFSFLT2_2pvu_pres_105.txt.gz
Presure
181 202 183 180 178 200 202 194 199 207 204 215 211 237 264 277 268 236 250 242 242 251 239 266 263 269 252
189 183 180 196 197 199 199 200 205 201 213 219 220 295 297 253 273 254 249 253 238 241 258 262 272 249 259
180 203 195 196 198 192 199 203 205 215 220 254 240 242 253 236 252 242 242 246 247 246 262 260 256 249 249
182 197 199 199 195 205 210 212 218 229 248 262 245 277 242 255 249 243 247 244 263 266 258 248 249 252 244
203 199 212 199 200 211 214 228 276 283 275 272 264 264 253 246 246 249 244 285 264 252 244 248 239 242 246
216 198 202 214 208 242 290 249 261 281 283 246 266 252 248 246 245 247 241 252 251 243 242 248 247 247 257
220 226 221 234 252 277 271 268 284 285 273 263 243 251 244 244 244 247 231 245 240 227 239 245 247 257 261
224 252 294 289 296 301 296 269 256 250 266 249 257 249 239 244 261 251 240 231 223 226 235 240 245 256 260
280 267 312 306 306 274 279 277 266 259 253 242 246 238 240 256 261 240 231 221 223 225 229 238 248 258 269
320 304 307 299 290 275 278 263 256 248 251 239 235 240 254 256 240 230 218 219 218 223 226 238 252 261 293
329 311 298 278 271 273 265 256 247 249 238 228 234 255 245 240 230 218 218 218 216 223 228 237 250 274 294
304 281 283 273 264 260 246 235 251 232 230 229 244 248 241 232 228 216 218 213 212 221 229 238 251 289 293
280 275 278 251 258 252 253 249 235 231 224 229 251 243 238 230 225 216 213 213 213 219 229 240 256 292 287
279 261 243 261 235 248 244 230 228 223 228 241 245 241 235 231 226 217 209 213 215 219 229 240 262 294 281
271 259 262 259 247 240 231 227 217 224 232 238 245 245 233 230 224 218 212 212 216 221 227 241 266 291 279
269 257 250 242 233 232 226 222 223 231 232 235 233 239 241 231 226 217 213 209 217 224 226 239 264 293 276
258 236 247 230 238 226 224 218 227 231 227 234 228 232 236 243 244 217 216 208 217 222 229 242 262 292 275

GFSFLT2_2pvu_pres_108.txt.gz
Presure
194 167 187 173 222 206 184 213 202 197 226 198 202 208 214 221 258 263 252 248 271 232 252 238 249 256 278
207 176 181 176 193 210 246 208 218 223 204 206 212 218 224 245 241 255 264 233 262 254 256 247 270 274 265
188 204 190 190 210 199 218 227 225 209 215 237 221 227 241 285 266 258 272 248 255 253 243 262 239 254 251
215 191 202 201 191 223 197 200 209 226 223 209 226 264 278 253 279 255 268 254 252 250 252 245 252 247 230
212 206 205 204 214 203 201 244 227 218 217 235 255 284 288 268 277 255 254 255 250 247 258 252 242 228 221
223 217 212 204 204 216 219 223 221 231 252 332 250 298 267 269 253 255 253 247 245 263 248 242 230 220 224
218 206 206 228 219 230 229 250 256 275 311 274 286 264 276 263 256 252 243 241 258 247 241 232 220 222 218
219 221 225 238 286 285 288 307 317 305 307 280 264 271 263 251 249 240 237 259 248 245 232 224 221 218 215
280 273 276 302 308 304 295 324 281 302 272 270 272 263 255 248 240 234 246 247 244 235 230 218 219 216 215
355 384 363 337 323 319 286 299 289 280 278 251 265 251 244 240 232 233 251 245 239 232 229 219 217 215 216
368 340 314 318 302 319 283 286 274 268 266 250 251 242 241 234 231 234 250 244 240 233 229 218 216 214 216
319 320 303 295 312 292 292 265 272 264 256 250 253 240 233 231 224 231 247 245 238 232 231 220 214 213 215
311 299 282 297 291 278 254 273 264 240 254 247 238 232 223 223 232 234 242 248 244 234 232 227 218 212 216
290 277 279 277 275 257 254 256 247 254 234 239 235 222 226 227 229 234 235 229 237 241 247 248 217 210 220
276 285 274 272 273 264 253 244 256 244 238 236 224 227 225 222 227 234 234 229 234 237 243 250 237 215 226
268 263 266 254 254 250 255 260 251 241 231 231 226 222 220 230 226 235 230 231 232 238 238 253 235 217 225
257 256 267 246 245 250 248 245 231 233 234 230 217 219 223 226 227 231 226 235 235 240 247 263 213 218 228

GFSFLT2_2pvu_pres_111.txt.gz
Presure
196 176 188 191 208 180 189 206 210 217 223 216 216 207 155 207 218 215 225 241 246 264 271 252 256 256 254
194 172 206 159 150 195 178 182 199 218 228 222 217 223 231 234 217 226 236 283 251 268 259 241 256 254 247
180 201 171 179 185 207 189 192 224 230 226 217 205 225 221 215 233 254 317 296 275 274 262 256 254 248 260
185 178 143 189 188 189 193 200 204 221 207 216 216 224 228 250 287 309 308 283 271 265 252 254 248 249 256
181 188 183 186 191 198 201 214 221 222 222 224 222 230 261 264 269 300 290 268 257 257 255 247 243 258 257
181 199 195 195 204 208 221 224 224 228 228 234 239 270 255 329 323 289 276 263 260 252 249 241 257 257 243
190 210 212 216 222 231 233 236 236 243 271 263 261 267 325 307 293 266 264 257 252 250 240 240 247 245 238
223 226 236 245 248 249 247 266 273 291 256 282 293 283 268 293 277 265 260 252 249 238 234 251 248 242 238
262 265 265 272 278 333 262 333 341 349 329 327 323 310 289 275 261 262 248 246 237 235 229 249 242 242 238
280 290 263 388 370 352 364 371 341 323 302 317 304 283 260 249 262 249 243 236 236 231 241 241 246 243 239
379 379 374 361 358 360 346 328 316 298 309 284 282 260 256 258 248 242 235 236 229 226 238 235 238 239 241
342 358 353 343 335 317 317 308 286 300 279 282 256 266 257 247 249 235 234 229 226 234 230 235 232 230 232
305 289 288 297 288 297 289 296 287 285 271 251 262 255 240 250 226 232 230 224 225 226 229 231 231 230 229
280 286 302 301 286 290 264 282 268 261 260 243 254 243 246 241 233 232 225 223 225 224 226 231 230 232 237
312 276 255 281 290 267 274 278 267 263 254 252 249 236 245 235 230 228 218 223 219 226 222 231 228 236 231
271 280 285 281 266 276 260 260 255 261 251 240 252 248 245 226 229 224 226 216 224 215 228 229 232 234 245
270 275 269 262 252 250 251 249 248 240 241 247 240 242 225 230 228 229 223 216 224 219 232 236 236 239 251

GFSFLT2_2pvu_pres_114.txt.gz
Presure
159 167 178 173 165 181 169 174 198 171 178 184 189 200 200 198 204 216 215 225 228 232 280 285 296 269 259
171 182 163 172 169 167 179 187 148 181 194 203 194 200 192 207 210 217 226 230 228 268 289 301 284 275 267
172 160 209 185 192 212 188 181 213 232 208 196 202 202 206 210 219 228 238 241 280 266 313 283 274 262 253
187 187 205 216 212 235 241 238 204 183 182 198 212 213 214 222 236 242 250 270 274 274 272 278 255 264 253
204 176 198 187 181 203 211 201 226 212 213 217 222 226 234 243 247 266 296 259 252 289 280 265 254 250 246
181 164 188 194 138 245 205 226 221 225 232 226 242 252 254 264 301 272 242 321 267 275 277 257 243 248 240
132 255 258 256 254 250 245 250 249 250 260 264 271 283 300 251 334 322 293 297 274 270 255 250 246 241 237
271 277 273 274 273 272 271 276 278 279 287 269 285 307 351 335 322 302 299 292 272 257 251 238 243 236 228
275 292 286 282 282 289 296 257 257 366 372 364 348 349 333 319 317 291 292 271 259 251 230 245 235 230 228
139 265 265 305 261 296 369 373 380 370 351 344 347 328 312 296 307 292 269 258 251 236 238 237 233 227 234
298 312 309 309 345 342 341 376 359 359 360 327 312 305 298 303 281 265 257 251 239 239 239 228 227 223 230
306 277 293 314 322 308 308 311 334 322 319 310 295 296 278 276 259 252 257 247 238 240 224 227 226 224 224
294 291 287 297 306 293 290 309 295 296 285 289 290 270 277 259 247 260 247 238 244 228 227 225 216 222 217
279 285 279 292 306 295 293 284 313 291 276 287 285 273 251 248 255 245 241 242 233 228 228 225 218 212 215
272 274 278 294 288 279 282 278 289 271 272 264 262 257 242 248 250 242 235 244 232 226 225 222 223 213 220
267 265 270 282 272 275 281 279 271 273 266 270 254 256 252 248 243 240 235 239 238 223 223 223 217 210 218
268 268 263 267 275 267 275 282 260 261 259 261 249 255 251 242 241 251 246 247 238 225 227 226 213 227 216

GFSFLT2_2pvu_pres_117.txt.gz
Presure
192 185 193 186 165 201 184 192 182 181 178 186 187 180 201 194 211 216 225 212 220 226 219 235 248 306 258
204 177 183 198 201 199 174 178 180 194 178 185 186 212 194 211 234 222 220 215 224 226 233 251 254 275 244
181 204 192 194 207 192 163 161 238 211 228 255 247 243 234 240 240 231 232 230 234 241 252 254 295 255 289
199 188 200 209 199 227 259 276 264 249 232 259 246 256 256 249 244 244 241 253 253 255 261 268 283 290 280
198 202 218 217 221 257 265 269 227 262 267 264 265 264 265 258 253 260 264 257 280 266 245 258 301 285 274
211 220 249 155 246 274 248 290 273 270 291 293 296 302 292 301 300 283 271 243 245 302 314 295 296 282 268
208 236 181 253 280 296 310 273 286 285 281 287 268 274 264 259 315 315 323 328 328 314 292 280 287 250 254
248 242 277 305 309 275 325 127 268 279 300 314 322 324 344 357 350 329 329 322 318 303 311 284 272 257 241
236 285 303 281 297 297 267 314 296 307 301 332 356 363 384 358 348 335 321 319 311 308 286 264 263 243 240
291 285 272 329 305 314 313 311 305 312 330 320 364 354 340 331 326 315 312 301 290 293 259 267 250 241 226
279 277 319 277 309 311 302 298 299 296 310 302 351 380 336 315 302 295 298 280 292 280 266 253 240 232 227
271 306 302 303 282 303 295 292 286 314 289 318 293 314 307 309 305 292 290 289 273 258 254 241 234 229 225
311 316 245 299 295 292 281 282 281 311 293 289 299 292 281 278 275 287 263 265 256 251 245 240 228 230 226
308 303 298 293 285 288 279 272 293 304 279 279 291 279 283 285 288 258 264 254 244 252 245 234 233 231 224
292 291 285 285 283 276 274 272 278 276 280 289 272 269 279 279 267 263 255 246 247 249 238 233 234 228 224
286 282 283 298 292 270 272 268 271 283 284 277 267 259 271 258 258 249 246 238 249 248 239 229 238 233 228
277 275 279 304 288 264 254 264 255 282 276 290 271 269 259 269 256 245 248 241 242 248 241 233 234 242 238

GFSFLT2_2pvu_pres_120.txt.gz
Presure
200 169 172 204 169 191 176 187 184 202 202 205 196 206 233 193 275 236 254 259 245 247 241 245 248 243 244
153 158 202 179 189 182 203 193 202 208 209 202 221 228 222 282 254 264 267 263 262 259 256 278 244 244 258
168 193 186 178 183 186 183 183 206 206 217 228 282 245 286 280 276 276 255 295 264 269 266 268 259 258 256
184 205 182 191 207 208 186 217 206 205 209 202 225 297 326 304 296 288 286 269 262 276 281 266 278 249 231
201 198 195 209 208 204 216 103 218 216 248 261 302 269 322 324 274 272 252 261 278 262 268 267 305 251 289
210 195 187 188 200 225 225 162 153 239 241 264 304 325 284 126 316 303 305 309 308 298 294 296 314 309 298
194 195 208 190 209 216 203 222 220 253 227 336 336 331 319 318 317 316 312 315 321 320 308 309 314 304 312
207 205 199 202 192 198 208 230 224 227 321 304 326 316 313 314 319 328 326 341 351 337 315 303 310 297 295
168 205 201 203 217 191 285 248 211 300 319 318 314 309 307 310 315 335 359 357 331 320 315 306 301 284 273
185 197 197 203 228 228 258 216 303 320 312 315 304 301 294 308 325 336 326 324 318 309 303 299 288 287 259
202 214 180 221 289 219 258 291 300 310 306 301 296 290 311 301 315 334 317 310 309 304 298 298 287 277 265
196 206 218 212 225 248 294 284 298 316 299 291 287 282 312 295 291 291 304 293 297 295 289 287 270 271 254
211 274 248 235 274 212 280 270 305 298 292 287 281 277 311 279 282 283 277 282 266 282 300 271 268 255 245
246 268 278 297 301 285 307 303 302 292 286 269 276 275 283 275 280 272 268 272 285 281 272 263 252 245 246
268 279 275 300 297 291 295 293 293 287 309 276 274 271 267 302 273 269 268 288 269 251 260 254 247 239 245
272 279 275 269 295 301 291 282 285 283 300 277 266 270 260 281 265 263 261 273 256 258 255 248 239 231 251
280 275 257 287 269 288 281 267 290 281 299 279 271 265 255 278 271 263 261 256 262 256 250 252 237 239 243